Location: site
(53.0000°N, 23.0500°E)
Time: 22:37:12
(UTC+01:00)

SAOCOM 1-A - Pass Details

Date: 25 January 2020
Orbit: 621 x 623 km, 97.9° (Epoch: 24 February)

Event Time Altitude Azimuth Distance (km) Brightness Sun altitude
Exits shadow 18:00:52 - 15° (NNE) 2,236 ? -18.1°
Reaches altitude 10° 18:01:25 10° 15° (NNE) 2,006 ? -18.2°
Maximum altitude 18:05:48 87° 107° (ESE) 631 ? -18.9°
Drops below altitude 10° 18:10:08 10° 195° (SSW) 1,989 ? -19.5°
Sets 18:12:19 0° 196° (SSW) 2,890 ? -19.8°
